KD8BMB Weather Reports


time (UTC)temp
C
wind
direction
speed
KPH
gust
KPH
rain 1hr
cm
rain 24hr
cm
rain mn
cm
humidity
%
barometer
mb
20260508190144 17 280 1.6 1.6 0.00 0.00 0.00 34 1008.7
20260508185641 16 286 1.6 3.2 0.00 0.00 0.00 33 1008.7
20260508185138 17 221 6.4 11.3 0.00 0.00 0.00 34 1008.8
20260508184635 16 281 9.7 11.3 0.00 0.00 0.00 32 1009.0
20260508184132 16 121 0.0 0.0 0.00 0.00 0.00 35 1008.9
20260508183629 16 284 0.0 1.6 0.00 0.00 0.00 33 1008.9
20260508183125 16 327 0.0 0.0 0.00 0.00 0.00 33 1009.2
20260508182621 16 232 0.0 3.2 0.00 0.00 0.00 35 1009.3
20260508182118 15 227 3.2 4.8 0.00 0.00 0.00 36 1009.2
20260508181613 16 279 9.7 14.5 0.00 0.00 0.00 31 1009.2
20260508181111 16 224 8.0 12.9 0.00 0.00 0.00 32 1009.2
20260508180608 17 292 0.0 1.6 0.00 0.00 0.00 31 1009.2
20260508180104 16 172 0.0 0.0 0.00 0.00 0.00 33 1009.5
20260508175601 16 266 0.0 0.0 0.00 0.00 0.00 33 1009.4
20260508175058 16 273 8.0 14.5 0.00 0.00 0.00 32 1009.7
20260508174555 15 247 3.2 4.8 0.00 0.00 0.00 33 1009.8
20260508174052 16 288 8.0 9.7 0.00 0.00 0.00 32 1009.7
20260508173549 16 262 0.0 0.0 0.00 0.00 0.00 31 1009.8
20260508173045 15 283 4.8 4.8 0.00 0.00 0.00 32 1010.0
20260508172543 16 218 8.0 9.7 0.00 0.00 0.00 30 1010.3
20260508172039 15 201 0.0 1.6 0.00 0.00 0.00 33 1010.1
20260508171536 15 214 0.0 1.6 0.00 0.00 0.00 33 1010.3
20260508171032 16 217 9.7 14.5 0.00 0.00 0.00 33 1010.1
20260508170529 15 36 0.0 1.6 0.00 0.00 0.00 32 1010.3
20260508170027 15 275 1.6 3.2 0.00 0.00 0.00 34 1010.4
20260508165524 15 320 0.0 1.6 0.00 0.00 0.00 32 1010.4
20260508165020 14 271 1.6 3.2 0.00 0.00 0.00 32 1010.5
20260508164517 14 219 6.4 11.3 0.00 0.00 0.00 32 1010.6
20260508164014 14 289 4.8 8.0 0.00 0.00 0.00 35 1010.6
20260508163511 14 333 3.2 8.0 0.00 0.00 0.00 34 1010.7
20260508163008 15 209 0.0 0.0 0.00 0.00 0.00 36 1010.9
20260508162505 14 49 0.0 0.0 0.00 0.00 0.00 34 1010.8
20260508162002 14 253 1.6 3.2 0.00 0.00 0.00 33 1010.9
20260508161458 13 248 1.6 3.2 0.00 0.00 0.00 36 1010.9
20260508160956 14 199 3.2 4.8 0.00 0.00 0.00 38 1011.0
20260508160454 14 288 12.9 12.9 0.00 0.00 0.00 35 1011.0
20260508155950 15 296 8.0 9.7 0.00 0.00 0.00 37 1010.8
20260508155448 13 289 0.0 0.0 0.00 0.00 0.00 40 1010.9
20260508154944 14 276 6.4 8.0 0.00 0.00 0.00 37 1011.0
20260508154442 14 287 1.6 3.2 0.00 0.00 0.00 40 1011.2
20260508153938 13 308 0.0 0.0 0.00 0.00 0.00 40 1011.3
20260508153436 15 290 1.6 1.6 0.00 0.00 0.00 39 1011.2
20260508152932 13 80 1.6 3.2 0.00 0.00 0.00 40 1011.1
20260508152428 13 282 3.2 8.0 0.00 0.00 0.00 43 1011.1
20260508151925 13 263 0.0 3.2 0.00 0.00 0.00 43 1011.3
20260508151422 13 223 0.0 0.0 0.00 0.00 0.00 44 1011.5
20260508150918 13 240 3.2 4.8 0.00 0.00 0.00 43 1011.3
20260508150415 12 260 1.6 1.6 0.00 0.00 0.00 42 1011.4
20260508145911 13 279 3.2 3.2 0.00 0.00 0.00 40 1011.6
20260508145407 12 292 9.7 12.9 0.00 0.00 0.00 42 1011.4
20260508144904 13 245 0.0 1.6 0.00 0.00 0.00 45 1011.6
20260508144402 13 309 3.2 3.2 0.00 0.00 0.00 44 1011.8
20260508143859 13 209 1.6 1.6 0.00 0.00 0.00 46 1011.4
20260508143357 13 120 0.0 0.0 0.00 0.00 0.00 44 1011.4
20260508142853 12 334 8.0 11.3 0.00 0.00 0.00 48 1011.8
20260508142350 12 321 3.2 3.2 0.00 0.00 0.00 50 1011.7
20260508141846 12 80 0.0 0.0 0.00 0.00 0.00 50 1011.6
20260508141343 11 212 0.0 0.0 0.00 0.00 0.00 52 1011.7
20260508140841 11 299 4.8 4.8 0.00 0.00 0.00 52 1011.7
20260508140338 12 237 1.6 3.2 0.00 0.00 0.00 53 1011.7
20260508135833 11 223 0.0 0.0 0.00 0.00 0.00 52 1011.9
20260508135330 11 267 1.6 3.2 0.00 0.00 0.00 57 1012.0
20260508134826 11 251 1.6 1.6 0.00 0.00 0.00 56 1011.9
20260508134323 12 275 0.0 0.0 0.00 0.00 0.00 58 1012.0
20260508133819 10 312 0.0 0.0 0.00 0.00 0.00 58 1011.7
20260508133318 10 266 1.6 3.2 0.00 0.00 0.00 59 1012.2
20260508132814 10 252 0.0 1.6 0.00 0.00 0.00 57 1012.0
20260508132312 10 260 3.2 4.8 0.00 0.00 0.00 57 1012.2
20260508131808 11 223 3.2 3.2 0.00 0.00 0.00 58 1012.2
20260508131303 11 234 0.0 0.0 0.00 0.00 0.00 60 1012.2
20260508130755 10 287 0.0 0.0 0.00 0.00 0.00 63 1012.0
20260508130252 10 174 0.0 0.0 0.00 0.00 0.00 61 1012.1
20260508125748 10 305 0.0 0.0 0.00 0.00 0.00 65 1012.1
20260508125244 10 265 0.0 0.0 0.00 0.00 0.00 67 1012.1
20260508124743 9 225 0.0 0.0 0.00 0.00 0.00 67 1011.9
20260508124239 9 212 0.0 0.0 0.00 0.00 0.00 70 1012.0
20260508123738 8 293 0.0 0.0 0.00 0.00 0.00 75 1011.8
20260508123235 8 216 0.0 0.0 0.00 0.00 0.00 76 1012.0
20260508122731 7 289 0.0 0.0 0.00 0.00 0.00 82 1011.9
20260508122228 6 272 0.0 0.0 0.00 0.00 0.00 90 1011.9
20260508121726 6 262 0.0 0.0 0.00 0.00 0.00 95 1011.9
20260508121224 5 213 0.0 0.0 0.00 0.00 0.00 99 1011.5
20260508120721 5 292 0.0 0.0 0.00 0.00 0.00 99 1011.6
20260508120219 5 292 0.0 0.0 0.00 0.00 0.00 99 1011.6
20260508115716 4 222 0.0 0.0 0.00 0.00 0.00 99 1011.7
20260508115214 4 274 0.0 0.0 0.00 0.00 0.00 99 1011.6
20260508114710 3 313 0.0 0.0 0.00 0.00 0.00 99 1011.4
20260508114207 3 293 0.0 0.0 0.00 0.00 0.00 99 1011.6
20260508113703 3 292 0.0 0.0 0.00 0.00 0.00 99 1011.4
20260508113202 3 300 0.0 0.0 0.00 0.00 0.00 99 1011.3
20260508112658 3 320 0.0 0.0 0.00 0.00 0.00 99 1011.3
20260508112155 3 325 0.0 0.0 0.00 0.00 0.00 99 1011.2
20260508111651 2 322 0.0 0.0 0.00 0.00 0.00 99 1011.4
20260508111149 2 347 0.0 0.0 0.00 0.00 0.00 99 1011.4
20260508110646 1 315 0.0 0.0 0.00 0.00 0.00 99 1011.4
20260508110143 1 315 0.0 0.0 0.00 0.00 0.00 99 1011.2
20260508105638 1 315 0.0 0.0 0.00 0.00 0.00 99 1011.3
20260508105135 1 315 0.0 0.0 0.00 0.00 0.00 99 1011.3
20260508104633 1 312 0.0 0.0 0.00 0.00 0.00 99 1011.6
20260508104129 0 312 0.0 0.0 0.00 0.00 0.00 99 1011.4
20260508103626 1 311 0.0 0.0 0.00 0.00 0.00 99 1011.4
20260508103123 1 297 0.0 0.0 0.00 0.00 0.00 99 1011.4
20260508102621 1 294 0.0 0.0 0.00 0.00 0.00 99 1011.5
20260508102119 1 294 0.0 0.0 0.00 0.00 0.00 99 1011.6
20260508101616 1 294 0.0 0.0 0.00 0.00 0.00 99 1011.4
20260508101113 1 291 0.0 0.0 0.00 0.00 0.00 99 1011.5
20260508100610 1 289 0.0 0.0 0.00 0.00 0.00 99 1011.4
20260508100108 1 299 0.0 0.0 0.00 0.00 0.00 99 1011.3
20260508095604 1 311 0.0 0.0 0.00 0.00 0.00 99 1011.4
20260508095101 1 311 0.0 0.0 0.00 0.00 0.00 99 1011.4
20260508094559 1 336 0.0 0.0 0.00 0.00 0.00 99 1011.4
20260508094055 1 311 0.0 0.0 0.00 0.00 0.00 99 1011.5
20260508093553 1 320 0.0 0.0 0.00 0.00 0.00 99 1011.4
20260508093050 2 324 0.0 0.0 0.00 0.00 0.00 99 1011.6
20260508092547 2 296 0.0 0.0 0.00 0.00 0.00 99 1011.6
20260508092046 2 295 0.0 0.0 0.00 0.00 0.00 99 1011.5
20260508091542 2 311 0.0 0.0 0.00 0.00 0.00 99 1011.7
20260508091039 2 314 0.0 0.0 0.00 0.00 0.00 99 1011.6
20260508090538 2 305 0.0 0.0 0.00 0.00 0.00 99 1011.7
20260508090034 2 306 0.0 0.0 0.00 0.00 0.00 99 1011.5
20260508085530 2 305 0.0 0.0 0.00 0.00 0.00 99 1011.7
20260508085028 2 291 0.0 0.0 0.00 0.00 0.00 99 1011.7
20260508084525 3 291 0.0 0.0 0.00 0.00 0.00 99 1011.7
20260508084022 3 286 0.0 0.0 0.00 0.00 0.00 99 1011.6
20260508083519 3 283 0.0 0.0 0.00 0.00 0.00 99 1011.5
20260508083015 3 306 0.0 0.0 0.00 0.00 0.00 99 1011.7
20260508082511 3 325 0.0 0.0 0.00 0.00 0.00 99 1011.6
20260508082009 3 332 0.0 0.0 0.00 0.00 0.00 99 1011.8
20260508081506 3 285 0.0 0.0 0.00 0.00 0.00 99 1011.6
20260508081002 3 285 0.0 0.0 0.00 0.00 0.00 99 1011.8
20260508080500 3 292 0.0 0.0 0.00 0.00 0.00 99 1011.6
20260508075957 3 307 0.0 0.0 0.00 0.00 0.00 99 1011.8
20260508075454 3 291 0.0 0.0 0.00 0.00 0.00 99 1011.7
20260508074951 3 302 0.0 0.0 0.00 0.00 0.00 99 1011.7
20260508074449 4 301 0.0 0.0 0.00 0.00 0.00 99 1011.7
20260508073945 4 316 0.0 0.0 0.00 0.00 0.00 98 1011.6
20260508073443 4 298 0.0 0.0 0.00 0.00 0.00 98 1011.6
20260508072940 5 283 0.0 0.0 0.00 0.00 0.00 98 1011.5
20260508072436 5 282 0.0 0.0 0.00 0.00 0.00 97 1011.5
20260508071934 5 288 0.0 0.0 0.00 0.00 0.00 97 1011.5
20260508071431 5 309 0.0 0.0 0.00 0.00 0.00 96 1011.5
20260508070929 5 310 0.0 0.0 0.00 0.00 0.00 96 1011.4
20260508070427 5 309 0.0 0.0 0.00 0.00 0.00 95 1011.5
20260508065924 5 284 0.0 0.0 0.00 0.00 0.00 95 1011.6
20260508065422 5 262 0.0 0.0 0.00 0.00 0.00 95 1011.7
20260508064920 5 235 0.0 0.0 0.00 0.00 0.00 95 1011.6
20260508064417 5 318 0.0 0.0 0.00 0.00 0.00 94 1011.6
20260508063915 5 313 0.0 0.0 0.00 0.00 0.00 94 1011.5
20260508063412 5 289 0.0 0.0 0.00 0.00 0.00 94 1011.3
20260508062909 5 259 0.0 0.0 0.00 0.00 0.00 93 1011.3
20260508062407 5 244 0.0 0.0 0.00 0.00 0.00 93 1011.8
20260508061904 5 279 0.0 0.0 0.00 0.00 0.00 93 1011.5
20260508061401 5 258 0.0 0.0 0.00 0.00 0.00 93 1011.9
20260508060857 5 284 0.0 0.0 0.00 0.00 0.00 93 1011.7
20260508060355 6 281 0.0 0.0 0.00 0.00 0.00 94 1011.7
20260508055850 6 281 0.0 0.0 0.00 0.00 0.00 93 1011.8
20260508055348 6 251 0.0 0.0 0.00 0.00 0.00 92 1012.0
20260508054844 6 268 0.0 0.0 0.00 0.00 0.00 90 1012.2
20260508054342 6 279 0.0 0.0 0.00 0.00 0.00 88 1011.9
20260508053838 6 84 0.0 1.6 0.00 0.00 0.00 87 1011.7
20260508053336 6 80 0.0 0.0 0.00 0.00 0.00 89 1011.9
20260508052833 6 325 0.0 0.0 0.00 0.00 0.00 91 1011.8
20260508052330 6 320 0.0 0.0 0.00 0.00 0.00 91 1011.9
20260508051826 6 331 0.0 0.0 0.00 0.00 0.00 91 1011.7
20260508051322 6 87 0.0 0.0 0.00 0.00 0.00 92 1011.9
20260508050818 6 329 0.0 0.0 0.00 0.00 0.00 92 1012.0
20260508050316 6 328 0.0 0.0 0.00 0.00 0.00 91 1011.7
20260508045811 6 19 0.0 0.0 0.00 0.00 0.00 91 1011.7
20260508045309 6 346 0.0 0.0 0.00 0.00 0.00 91 1011.9
20260508044807 6 49 0.0 0.0 0.00 0.00 0.00 92 1011.9
20260508044303 6 280 0.0 0.0 0.00 0.00 0.00 91 1012.0
20260508043759 6 281 0.0 0.0 0.00 0.00 0.00 90 1011.9
20260508043257 6 281 0.0 0.0 0.00 0.00 0.00 90 1011.9
20260508042753 6 281 0.0 0.0 0.00 0.00 0.00 90 1011.7
20260508042251 6 295 0.0 0.0 0.00 0.00 0.00 89 1011.9
20260508041747 6 284 0.0 0.0 0.00 0.00 0.00 88 1011.6
20260508041244 6 65 0.0 0.0 0.00 0.00 0.00 88 1011.5
20260508040740 6 266 0.0 0.0 0.00 0.00 0.00 88 1011.8
20260508040238 6 309 0.0 0.0 0.00 0.00 0.00 88 1012.1
20260508035735 6 305 0.0 0.0 0.00 0.00 0.00 88 1011.9
20260508035232 6 305 0.0 0.0 0.00 0.00 0.00 87 1011.8
20260508034729 6 282 0.0 0.0 0.00 0.00 0.00 87 1011.8
20260508034226 6 288 0.0 0.0 0.00 0.00 0.00 85 1011.7
20260508033723 6 309 0.0 0.0 0.00 0.00 0.00 85 1011.8
20260508033222 6 310 0.0 0.0 0.00 0.00 0.00 84 1012.0
20260508032719 6 310 0.0 0.0 0.00 0.00 0.00 83 1011.7
20260508032216 6 305 0.0 0.0 0.00 0.00 0.00 82 1011.8
20260508031712 6 286 0.0 0.0 0.00 0.00 0.00 81 1011.3
20260508031209 6 282 0.0 0.0 0.00 0.00 0.00 80 1011.5
20260508030705 6 301 0.0 0.0 0.00 0.00 0.00 79 1011.7
20260508030203 6 347 0.0 0.0 0.00 0.00 0.00 78 1011.7
20260508025659 6 299 0.0 0.0 0.00 0.00 0.00 77 1011.7
20260508025156 6 299 0.0 0.0 0.00 0.00 0.00 75 1011.9
20260508024652 7 279 0.0 0.0 0.00 0.00 0.00 73 1011.5
20260508024149 7 29 0.0 0.0 0.00 0.00 0.00 73 1011.6
20260508023645 7 358 1.6 1.6 0.00 0.00 0.00 71 1011.7
20260508023143 7 321 0.0 0.0 0.00 0.00 0.00 70 1011.9
20260508022638 7 334 1.6 1.6 0.00 0.00 0.00 70 1011.6
20260508022136 7 45 1.6 1.6 0.00 0.00 0.00 69 1011.7
20260508021632 7 69 0.0 1.6 0.00 0.00 0.00 68 1011.7
20260508021127 8 4 0.0 0.0 0.00 0.00 0.00 62 1012.1
20260508020626 8 273 1.6 1.6 0.00 0.00 0.00 60 1012.1
20260508020123 7 295 3.2 3.2 0.00 0.00 0.00 59 1012.0
20260508015620 7 324 0.0 0.0 0.00 0.00 0.00 60 1011.7
20260508015117 7 321 4.8 4.8 0.00 0.00 0.00 61 1011.5
20260508014613 8 324 0.0 0.0 0.00 0.00 0.00 61 1011.2
20260508014110 8 303 0.0 0.0 0.00 0.00 0.00 60 1011.3
20260508013606 8 299 0.0 0.0 0.00 0.00 0.00 59 1011.2
20260508013103 8 296 0.0 0.0 0.00 0.00 0.00 59 1011.2
20260508012601 8 264 0.0 0.0 0.00 0.00 0.00 58 1011.1
20260508012058 8 305 1.6 3.2 0.00 0.00 0.00 57 1011.3
20260508011556 9 314 3.2 3.2 0.00 0.00 0.00 56 1011.1
20260508011053 9 311 3.2 3.2 0.00 0.00 0.00 55 1011.0
20260508010549 9 309 6.4 8.0 0.00 0.00 0.00 55 1010.9
20260508010047 9 296 0.0 0.0 0.00 0.00 0.00 54 1010.8
20260508005543 9 347 0.0 0.0 0.00 0.00 0.00 54 1011.0
20260508005040 9 313 1.6 3.2 0.00 0.00 0.00 54 1011.0
20260508004536 9 273 3.2 4.8 0.00 0.00 0.00 54 1010.9
20260508004033 9 302 0.0 0.0 0.00 0.00 0.00 54 1011.1
20260508003530 10 279 1.6 1.6 0.00 0.00 0.00 54 1010.9
20260508003027 10 244 8.0 9.7 0.00 0.00 0.00 52 1010.6
20260508002523 10 186 3.2 3.2 0.00 0.00 0.00 53 1010.9
20260508002021 10 254 0.0 0.0 0.00 0.00 0.00 53 1010.9
20260508001516 10 201 11.3 14.5 0.00 0.00 0.00 51 1010.8
20260508001013 10 169 4.8 9.7 0.00 0.00 0.00 51 1010.8
20260508000509 10 358 1.6 3.2 0.00 0.00 0.00 50 1010.9
20260508000006 10 289 4.8 4.8 0.00 0.00 0.00 50 1010.9
20260507235503 10 217 4.8 8.0 0.00 0.00 0.00 49 1010.6
20260507235000 10 322 3.2 4.8 0.00 0.00 0.00 49 1010.6
20260507234457 11 317 12.9 22.5 0.00 0.00 0.00 48 1010.6
20260507233953 11 293 4.8 8.0 0.00 0.00 0.00 47 1010.7
20260507233450 11 290 4.8 4.8 0.00 0.00 0.00 47 1010.6
20260507232949 11 290 8.0 11.3 0.00 0.00 0.00 46 1010.6
20260507232444 11 278 4.8 4.8 0.00 0.00 0.00 46 1010.6
20260507231942 11 227 11.3 16.1 0.00 0.00 0.00 45 1010.6
20260507231438 11 322 8.0 9.7 0.00 0.00 0.00 45 1010.5
20260507230935 11 234 3.2 3.2 0.00 0.00 0.00 46 1010.5
20260507230432 11 312 3.2 3.2 0.00 0.00 0.00 46 1010.6
20260507225933 11 302 9.7 17.7 0.00 0.00 0.00 45 1010.7
20260507225429 11 261 1.6 3.2 0.00 0.00 0.00 45 1010.6
20260507224925 11 289 3.2 3.2 0.00 0.00 0.00 46 1010.7
20260507224421 11 268 6.4 9.7 0.00 0.00 0.00 46 1010.7
20260507223918 11 311 3.2 4.8 0.00 0.00 0.00 46 1010.8
20260507223414 11 261 11.3 16.1 0.00 0.00 0.00 45 1010.8
20260507222911 11 287 3.2 4.8 0.00 0.00 0.00 45 1010.8
20260507222408 12 286 9.7 11.3 0.00 0.00 0.00 45 1010.6
20260507221905 12 21 0.0 0.0 0.00 0.00 0.00 45 1010.6
20260507221401 11 271 11.3 16.1 0.00 0.00 0.00 46 1010.8
20260507220857 11 249 8.0 9.7 0.00 0.00 0.00 46 1011.0
20260507220355 11 221 4.8 8.0 0.00 0.00 0.00 47 1010.8
20260507215852 11 284 6.4 9.7 0.00 0.00 0.00 46 1010.9
20260507215349 12 220 8.0 9.7 0.00 0.00 0.00 45 1010.8
20260507214846 11 283 14.5 17.7 0.00 0.00 0.00 46 1010.8
20260507214343 11 231 8.0 9.7 0.00 0.00 0.00 46 1010.8
20260507213838 11 234 6.4 9.7 0.00 0.00 0.00 47 1010.9
20260507213335 11 282 4.8 4.8 0.00 0.00 0.00 47 1010.8
20260507212832 11 287 12.9 16.1 0.00 0.00 0.00 46 1010.8
20260507212328 11 188 8.0 11.3 0.00 0.00 0.00 46 1010.7
20260507211824 11 229 11.3 17.7 0.00 0.00 0.00 46 1011.0
20260507211321 12 241 12.9 17.7 0.00 0.00 0.00 45 1010.9
20260507210818 11 245 1.6 1.6 0.00 0.00 0.00 46 1010.8
20260507210315 11 268 1.6 3.2 0.00 0.00 0.00 46 1010.9
20260507205811 11 246 3.2 3.2 0.00 0.00 0.00 46 1010.8
20260507205309 11 250 4.8 8.0 0.00 0.00 0.00 45 1010.8
20260507204804 11 239 3.2 4.8 0.00 0.00 0.00 45 1011.1
20260507204302 12 283 9.7 14.5 0.00 0.00 0.00 43 1011.0
20260507203800 11 320 11.3 14.5 0.00 0.00 0.00 45 1010.9
20260507203258 11 276 1.6 3.2 0.00 0.00 0.00 46 1010.8
20260507202754 11 243 3.2 3.2 0.00 0.00 0.00 47 1011.0
20260507202249 11 272 4.8 11.3 0.00 0.00 0.00 45 1011.1
20260507201744 11 249 12.9 16.1 0.00 0.00 0.00 44 1011.1
20260507201241 12 229 6.4 8.0 0.00 0.00 0.00 44 1011.1
20260507200738 12 317 9.7 17.7 0.00 0.00 0.00 43 1011.3
20260507200234 11 293 4.8 9.7 0.00 0.00 0.00 44 1011.2
20260507195730 12 216 8.0 14.5 0.00 0.00 0.00 44 1011.2
20260507195228 12 331 4.8 8.0 0.00 0.00 0.00 44 1011.2
20260507194725 12 344 4.8 8.0 0.00 0.00 0.00 44 1011.4
20260507194221 12 356 0.0 1.6 0.00 0.00 0.00 42 1011.3
20260507193718 11 84 3.2 8.0 0.00 0.00 0.00 45 1011.5
20260507193214 10 297 12.9 17.7 0.00 0.00 0.00 46 1011.5
20260507192710 11 232 6.4 9.7 0.00 0.00 0.00 45 1011.6
20260507192208 11 174 14.5 20.9 0.00 0.00 0.00 48 1011.5
20260507191703 11 285 11.3 12.9 0.00 0.00 0.00 46 1011.6
20260507191201 12 277 6.4 9.7 0.00 0.00 0.00 47 1011.6
20260507190657 10 279 1.6 3.2 0.00 0.00 0.00 48 1011.7